Вернуться в каталог

STARLINK-4352

АктивенСвязьSSO
NORAD 53047·PAYLOAD·🇺🇸 United States

Запущен Jul 11, 2022 с Vandenberg Space Force Base

Loading…

Ближайшие Пролёты (ближайшие 24 часа)

TLE

СвежийSource: CelesTrak SupGP

Эпоха: Sep 15, 2026, 02:04 UTC

1 53047C 22077E   26258.08659722 -.00071857  00000+0 -22305-2 0  2580
2 53047  97.2855  73.0020 0001397  92.2107 151.4748 15.33477695    11

Отслеживайте STARLINK-4352 в реальном времени с AllMySat

Download on the App Store